sat.trackr.live / text

‹ back to catalog

STARLINK-35084

NORAD 65452 · 2025-194U

PAYLOAD ACTIVE UNKNOWN

§ Identity

Operator
Country
US
Launch date
2025-09-03
Launch site
AFWTR
Launch vehicle
Mass (kg)
RCS (m²)

Purposes: comms

External: N2YO · Heavens-Above · Gunter

§ Orbital elements

Epoch: 2026-09-20T12:48:02.386944Z

Period
93.91 min
Inclination
97.2848°
Eccentricity
0.0001723
Mean motion
15.33427549 rev/d
Perigee alt
464.4 km
Apogee alt
466.8 km
Semi-major
6,843.7 km
B*
3.4127e-4
RAAN
113.1870°
Arg perigee
94.0380°
Mean anomaly
266.1060°
Rev number
5,907

§ Raw data

STARLINK-350841 65452U 25194U   26263.53336096  .00010952  00000+0  34127-3 0  99932 65452  97.2848 113.1870 0001723  94.0380 266.1060 15.33427549 59075

JSON: /api/v1/satellites/65452 · /tle

For live sub-satellite position, see the globe view (requires WebGL).

§ Visibility from observer

Set your observer location to see the next 7 days of passes ≥ 10°. The values pass through the URL so the page stays shareable.

No JS? Fill the form by hand. The geolocation button needs JavaScript.